Location: Vinland
(47.7731°N, 122.6974°W)
Time: 02:25:41
(UTC+00:00)

Transit 4A - Pass Details

Date: 08 April 2023
Orbit: 864 x 979 km, 66.8° (Epoch: 29 May)

Event Time Altitude Azimuth Distance (km) Brightness Sun altitude
Exits shadow 09:40:54 11° 111° (ESE) 2,446 10.1 -31.7°
Maximum altitude 09:41:58 12° 100° (E) 2,415 10.2 -31.6°
Drops below altitude 10° 09:43:51 10° 81° (E) 2,544 10.6 -31.5°
Sets 09:48:15 0° 51° (NE) 3,516 11.9 -31.1°
